Location: Campillo
(40.8621°N, 4.2488°W)
Time: 03:15:17
(UTC+00:00)

M-CUBED/EXP-1 PRIME - Visible Passes

Search period start: 17 October 2021 00:00
Search period end: 27 October 2021 00:00
Orbit: 427 x 655 km, 101.7° (Epoch: 16 October)

Date Brightness Start Highest point End Pass type
(mag) Time Alt. Az. Time Alt. Az. Time Alt. Az.
17 Oct ? 04:44:30 10° NE 04:47:04 18° E 04:49:43 10° SE visible
18 Oct ? 04:37:53 10° ENE 04:39:57 14° E 04:42:05 10° SE visible
19 Oct ? 04:31:37 10° E 04:32:50 11° E 04:34:05 10° ESE visible
19 Oct ? 06:03:38 10° N 06:07:07 48° WNW 06:10:48 10° SW visible
20 Oct ? 05:56:27 10° N 06:00:03 64° WNW 06:03:53 10° SSW visible
21 Oct ? 05:49:18 10° NNE 05:52:58 84° WNW 05:56:54 10° SSW visible
22 Oct ? 05:42:12 10° NNE 05:45:53 74° ESE 05:49:50 10° SSW visible
23 Oct ? 05:35:06 10° NNE 05:38:46 56° ESE 05:42:43 10° S visible
24 Oct ? 05:28:03 10° NNE 05:31:40 43° ESE 05:35:31 10° S visible
25 Oct ? 05:21:02 10° NE 05:24:32 34° ESE 05:28:14 10° S visible
26 Oct ? 05:14:05 10° NE 05:17:23 27° ESE 05:20:52 10° SSE visible
